Regional Weather Roundup
Issued by NWS

Home | Current Version | Previous Version | Graphics & Text | Print | Product List | Glossary On
Versions: 1 2 3 4 5 6 7 8 9 10 11 12 13 14 15 16 17 18 19 20 21 22 23 24 25 26 27 28 29 30 31 32 33 34 35 36 37 38 39 40 41 42 43 44 45 46 47 48 49 50
000
ASUS45 KSLC 231810
RWRUT

UTAH REGIONAL WEATHER ROUNDUP
NATIONAL WEATHER SERVICE SALT LAKE CITY UT
1200 PM MDT SAT MAY 23 2015

UTZ001>011-023>025-231900-

NORTHERN UTAH

CITY           SKY/WX    TMP DP  RH WIND       PRES   REMARKS
BRIGHAM CITY   CLOUDY    52  45  78 NW3       29.97R
HILL AFB       CLOUDY    53  45  74 SW3       29.95S
LOGAN          CLOUDY    51  45  79 N7        29.96R
OGDEN          CLOUDY    53  48  83 N5        29.94S
PROVO AIRPORT  NOT AVBL
SALT LAKE CITY CLOUDY    55  45  68 N3        29.94R
VERNAL         MOSUNNY   57  38  48 SW10      29.98S
WENDOVER       CLOUDY    54  50  87 NE16      29.92R
HEBER CITY     MOSUNNY   57  36  44 W6        29.93S
WEST JORDAN    MOSUNNY   54  43  66 CALM      29.96R

$$

UTZ012>022-026-027-231900-

SOUTHERN/CENTRAL UTAH

CITY           SKY/WX    TMP DP  RH WIND       PRES   REMARKS
BLANDING       CLOUDY    53  31  44 SW18G24   30.09S
BRYCE CANYON   CLOUDY    44  37  76 SE9       30.01S
CEDAR CITY     CLOUDY    49  42  77 S15       29.99S
DELTA          CLOUDY    51  40  66 CALM      29.96S
HANKSVILLE     CLOUDY    55  39  54 SE16G22   30.00S
MILFORD        LGT RAIN  50  45  83 S13       29.96R
MOAB/CYNLANDS  PTSUNNY   56  39  53 SW13      29.94R
PRICE          CLOUDY    52  38  58 N6        29.98S
ST GEORGE      PTCLDY    61  45  55 E5        30.01S
KANAB          CLOUDY    46  46 100 S8        30.07S

$$

REGIONAL REPORTS     COLORADO/ARIZONA

CITY           SKY/WX    TMP DP  RH WIND       PRES   REMARKS
CRAIG, CO      LGT RAIN  56  38  50 W15       29.97S
GRAND JUNCTION MOSUNNY   63  26  24 S9G17     29.93F
RIFLE          CLOUDY    55  34  45 SW13      29.97R
MONTROSE       PTSUNNY   57  28  33 N7        29.98F
CORTEZ         MOSUNNY   57  32  38 SW14G22   30.03S
PAGE, AZ       LGT RAIN  52  44  74 CALM      30.01R
GRAND CANYON   LGT RAIN  48  39  71 SW13G24   30.07S
KINGMAN        MOSUNNY   68  39  34 SW14G24   30.01F
FLAGSTAFF      CLOUDY    47  33  58 SW12G21   30.11R

$$

REGIONAL REPORTS    NEVADA/IDAHO/WYOMING

CITY           SKY/WX    TMP DP  RH WIND       PRES   REMARKS
LAS VEGAS, NV  MOSUNNY   72  40  31 S10       29.90F
ELY            CLOUDY    48  44  86 NW12      30.00R
ELKO           CLOUDY    53  48  83 SW7       29.97F
POCATELLO, ID  PTSUNNY   57  52  83 NW5       29.92S
BURLEY         CLOUDY    55  52  89 VRB5      29.92S
EVANSTON, WY   PTSUNNY   51  36  56 W7        29.97R
ROCK SPRINGS   PTSUNNY   53  36  52 CALM      29.96F
KEMMERER       CLOUDY    46  39  76 W12       30.00R

$$



USA.gov is the U.S. government's official web portal to all federal, state and local government web resources and services.